User: anonymous   Login
Location: Nickerson Gardens
(33.9320°N, 118.2484°W)
Time: 15:00:03
(UTC+00:00)
Language:

NOAA 19 - Orbit

View from above orbital plane
View from above orbital plane
View from above satellite
View from above satellite

Ground track
Ground track

The orbit data is extracted from the following two-line orbital elements,

1 33591U 09005A   21110.39359666  .00000057  00000-0  56439-4 0  9990
2 33591  99.1882 129.6481 0012990 297.0941  62.8904 14.12461354628729
Epoch (UTC): 20 April 2021 09:26:46
Eccentricity: 0.0012990
inclination: 99.1882°
perigee height: 841 km
apogee height: 860 km
right ascension of ascending node: 129.6481°
argument of perigee: 297.0941°
revolutions per day: 14.12461354
mean anomaly at epoch: 62.8904°
orbit number at epoch: 62872

The dashed part of the orbit path shows where the satellite is in the earth's shadow,  

DLR